CW9203 Weather Reports


time (UTC)temp
F
wind
direction
speed
knots
gust
knots
rain 1hr
in
rain 24hr
in
rain mn
in
humidity
%
barometer
mb
20190320004805 71 157 0.0 0.0 0.00 0.01 0.00 75 1024.2
20190320003804 71 188 0.0 0.0 0.00 0.01 0.00 77 1024.2
20190320003304 71 161 0.0 0.0 0.00 0.01 0.00 76 1024.3
20190320001804 70 154 0.0 0.0 0.00 0.02 0.00 79 1024.4
20190320001304 70 153 0.0 0.0 0.00 0.02 0.00 80 1024.5
20190320000804 70 271 0.0 0.0 0.00 0.02 0.00 81 1024.5
20190320000305 70 179 0.0 0.0 0.00 0.02 0.00 80 1024.5
20190319234805 70 177 0.0 0.0 0.00 0.02 0.00 81 1024.6
20190319234305 70 137 0.0 0.0 0.00 0.02 0.00 82 1024.6
20190319233804 69 123 0.0 0.0 0.00 0.02 0.00 81 1024.6
20190319233305 69 165 0.0 0.0 0.00 0.02 0.00 81 1024.7
20190319231805 69 165 0.0 0.0 0.00 0.02 0.00 80 1024.7
20190319231304 69 124 0.0 0.0 0.00 0.02 0.00 79 1024.8
20190319230805 70 167 0.0 0.0 0.00 0.02 0.00 80 1024.8
20190319230305 70 161 0.0 0.0 0.00 0.02 0.00 79 1024.9
20190319224805 69 113 0.0 0.0 0.00 0.02 0.00 78 1025.0
20190319223805 69 127 0.0 0.0 0.00 0.02 0.00 80 1025.1
20190319223305 69 127 0.0 0.0 0.00 0.02 0.00 81 1025.1
20190319220304 68 136 0.0 0.0 0.00 0.02 0.00 80 1025.2
20190319214804 69 121 0.0 0.0 0.00 0.02 0.00 80 1025.2
20190319214305 69 120 0.0 0.0 0.00 0.02 0.00 78 1025.1
20190319213804 69 142 0.0 0.0 0.00 0.02 0.00 79 1025.1
20190319213304 69 151 0.0 0.0 0.00 0.02 0.00 80 1025.2
20190319211804 68 150 0.0 0.0 0.00 0.02 0.00 81 1025.2
20190319211304 68 134 0.0 0.0 0.00 0.02 0.00 82 1025.2
20190319210304 67 74 0.0 0.0 0.00 0.02 0.00 83 1025.2
20190319204805 66 105 0.0 0.0 0.00 0.02 0.00 84 1025.1
20190319204304 66 135 0.0 0.0 0.00 0.02 0.00 84 1025.1
20190319201804 66 157 0.0 0.0 0.00 0.02 0.00 86 1025.1
20190319201304 66 157 0.0 0.0 0.00 0.02 0.00 86 1025.1
20190319200804 66 151 0.0 0.0 0.00 0.02 0.00 86 1025.0
20190319200305 66 150 0.0 0.0 0.00 0.02 0.00 86 1025.0
20190319193305 65 119 0.0 0.0 0.00 0.02 0.00 87 1024.7
20190319191805 65 123 0.0 0.0 0.00 0.02 0.00 87 1024.7
20190319191304 64 113 0.0 0.0 0.00 0.02 0.00 88 1024.7
20190319190805 64 107 0.0 0.0 0.00 0.02 0.00 88 1024.7
20190319184804 64 109 0.0 0.0 0.00 0.02 0.00 90 1024.5
20190319183304 64 126 0.0 0.0 0.00 0.02 0.00 89 1024.4
20190319181804 64 126 0.0 0.0 0.00 0.02 0.00 90 1024.3
20190319180804 64 140 0.0 0.0 0.00 0.02 0.00 91 1024.2
20190319180304 64 132 0.0 0.0 0.00 0.02 0.00 91 1024.2
20190319174804 64 144 0.0 0.0 0.00 0.02 0.00 91 1024.1
20190319174304 64 136 0.0 0.0 0.00 0.02 0.00 91 1024.0
20190319173804 64 135 0.0 0.0 0.00 0.02 0.00 91 1023.9
20190319171804 63 159 0.0 0.0 0.00 0.02 0.00 92 1023.8
20190319170804 63 159 0.0 0.0 0.00 0.02 0.00 93 1023.8
20190319170304 63 159 0.0 0.0 0.00 0.02 0.00 93 1023.8
20190319164804 63 159 0.0 0.0 0.00 0.02 0.00 93 1023.8
20190319164304 63 159 0.0 0.0 0.00 0.02 0.00 93 1023.7
20190319163804 63 159 0.0 0.0 0.00 0.02 0.00 93 1023.8
20190319163305 63 159 0.0 0.0 0.00 0.02 0.00 93 1023.9
20190319161805 63 159 0.0 0.0 0.00 0.02 0.00 92 1024.0
20190319160304 63 159 0.0 0.0 0.00 0.02 0.00 93 1024.1
20190319153804 62 159 0.0 0.0 0.00 0.02 0.00 92 1024.1
20190319153304 62 159 0.0 0.0 0.00 0.02 0.00 92 1024.1
20190319151804 63 159 0.0 0.0 0.00 0.02 0.00 90 1024.2
20190319151304 63 159 0.0 0.0 0.00 0.02 0.00 90 1024.3
20190319150804 63 159 0.0 0.0 0.00 0.02 0.00 89 1024.3
20190319150305 63 159 0.0 0.0 0.00 0.02 0.00 89 1024.3
20190319143805 64 160 0.0 0.0 0.00 0.02 0.00 87 1024.3
20190319143305 64 161 0.0 0.0 0.00 0.02 0.00 87 1024.3
20190319141805 64 161 0.0 0.0 0.00 0.02 0.00 87 1024.5
20190319140804 64 342 0.0 0.0 0.00 0.02 0.00 86 1024.6
20190319140305 64 342 0.0 0.0 0.00 0.02 0.00 86 1024.5
20190319134805 64 342 0.0 0.0 0.00 0.02 0.00 86 1024.5
20190319134305 65 342 0.0 0.0 0.00 0.02 0.00 86 1024.5
20190319133805 65 31 0.0 0.0 0.00 0.02 0.00 85 1024.5
20190319133305 65 33 0.0 0.0 0.00 0.02 0.00 85 1024.5
20190319131304 65 22 0.0 0.0 0.00 0.02 0.00 85 1024.6
20190319130804 65 53 0.0 0.0 0.00 0.02 0.00 85 1024.6
20190319130304 65 45 0.0 0.0 0.00 0.02 0.00 85 1024.7
20190319121304 65 72 0.0 0.0 0.00 0.02 0.00 85 1025.0
20190319120804 65 75 0.0 0.0 0.00 0.02 0.00 85 1025.0
20190319120304 65 44 0.0 0.0 0.00 0.02 0.00 86 1024.9
20190319114804 64 69 0.0 0.0 0.00 0.02 0.00 89 1025.0
20190319114305 64 78 0.0 0.0 0.00 0.02 0.00 89 1025.0
20190319113805 64 69 0.0 0.0 0.00 0.02 0.00 90 1025.0
20190319113304 64 38 0.0 0.0 0.00 0.02 0.00 90 1024.9
20190319111804 64 39 0.0 0.0 0.00 0.02 0.00 90 1024.9
20190319111304 64 62 0.0 0.0 0.00 0.02 0.00 90 1025.0
20190319110825 64 65 0.0 0.0 0.00 0.02 0.00 90 1025.0
20190319104804 64 71 0.0 0.0 0.00 0.02 0.02 91 1025.0
20190319104305 64 71 0.0 0.0 0.00 0.02 0.02 91 1025.0
20190319103805 64 71 0.0 0.0 0.00 0.02 0.02 91 1025.2
20190319103305 64 71 0.0 0.0 0.00 0.02 0.02 91 1025.2
20190319101806 64 74 0.0 0.0 0.00 0.02 0.02 91 1025.1
20190319101305 64 77 0.0 0.0 0.00 0.02 0.02 92 1025.1
20190319100805 64 82 0.0 0.0 0.00 0.02 0.02 91 1025.0
20190319100304 64 74 0.0 0.0 0.00 0.02 0.02 92 1025.0
20190319094805 64 40 0.0 0.0 0.00 0.02 0.02 92 1024.9
20190319094305 64 72 0.0 0.0 0.00 0.02 0.02 91 1024.9
20190319093305 64 74 0.0 0.0 0.00 0.02 0.02 92 1024.9
20190319091304 64 71 0.0 0.0 0.00 0.02 0.02 91 1024.8
20190319084304 65 71 0.0 0.0 0.00 0.02 0.02 90 1024.7
20190319083805 65 79 0.0 0.0 0.00 0.02 0.02 91 1024.6
20190319083304 64 69 0.0 0.0 0.00 0.02 0.02 91 1024.5
20190319081804 64 31 0.0 0.0 0.00 0.02 0.02 91 1024.4
20190319081304 64 31 0.0 0.0 0.00 0.02 0.02 91 1024.3
20190319080804 64 31 0.0 0.0 0.00 0.02 0.02 90 1024.2
20190319080305 65 31 0.0 0.0 0.00 0.02 0.02 90 1024.1
20190319074806 65 31 0.0 0.0 0.00 0.02 0.02 90 1023.8
20190319074305 65 31 0.0 0.0 0.00 0.02 0.02 90 1023.7
20190319073805 65 31 0.0 0.0 0.00 0.02 0.02 90 1023.5
20190319073305 65 31 0.0 0.0 0.00 0.02 0.02 89 1023.5
20190319071805 66 26 0.0 0.0 0.00 0.02 0.02 89 1023.4
20190319071304 66 25 0.0 0.0 0.00 0.02 0.02 89 1023.4
20190319070304 66 20 0.0 0.0 0.00 0.02 0.02 88 1023.2
20190319064305 67 331 0.0 0.0 0.00 0.02 0.02 86 1023.1
20190319063804 67 329 0.0 0.0 0.00 0.02 0.02 85 1023.2
20190319063304 68 280 0.0 0.0 0.00 0.02 0.02 84 1023.2
20190319061804 69 34 0.0 0.0 0.00 0.02 0.02 81 1023.1
20190319061304 70 339 0.0 0.0 0.00 0.02 0.02 81 1023.1
20190319060304 71 322 0.0 0.0 0.00 0.02 0.02 80 1023.0
20190319054804 71 299 0.0 0.0 0.00 0.03 0.02 79 1023.0
20190319053804 71 303 0.0 0.0 0.00 0.03 0.02 80 1023.0
20190319053304 71 312 0.0 0.0 0.00 0.04 0.02 81 1022.9
20190319051804 70 24 0.0 0.0 0.00 0.09 0.02 83 1022.8
20190319051305 70 27 0.0 0.0 0.00 0.10 0.02 83 1022.8
20190319050805 70 321 0.0 0.0 0.00 0.13 0.02 85 1022.8
20190319050304 69 300 0.0 0.0 0.00 0.13 0.02 85 1022.8
20190319044805 68 301 0.0 0.0 0.00 0.13 0.02 89 1022.7
20190319044305 68 298 0.0 0.0 0.00 0.13 0.02 89 1022.7
20190319034805 66 31 0.0 0.0 0.00 0.13 0.02 94 1023.0
20190319033805 66 24 0.0 0.0 0.00 0.13 0.02 95 1023.0
20190319031804 66 26 0.0 0.0 0.00 0.13 0.02 97 1023.3
20190319031304 66 34 0.0 0.0 0.00 0.13 0.02 96 1023.3
20190319030304 66 44 0.0 0.0 0.01 0.13 0.02 96 1023.3
20190319024805 65 32 0.0 0.0 0.01 0.13 0.02 96 1023.4
20190319024304 65 11 0.0 0.0 0.01 0.13 0.02 96 1023.5
20190319023805 66 19 0.0 0.0 0.01 0.13 0.02 96 1023.5
20190319023305 66 27 0.0 0.0 0.01 0.13 0.02 96 1023.7
20190319021304 66 354 0.0 0.0 0.01 0.13 0.02 95 1023.6
20190319020804 66 44 0.0 0.0 0.00 0.12 0.01 95 1023.6
20190319020305 66 43 0.0 0.0 0.00 0.12 0.01 95 1023.7
20190319014805 66 41 0.0 0.0 0.00 0.12 0.01 96 1023.6
20190319014305 66 38 0.0 0.0 0.00 0.12 0.01 96 1023.7
20190319013805 66 40 0.0 0.9 0.00 0.12 0.01 96 1023.8
20190319011804 65 28 0.0 0.0 0.01 0.12 0.01 97 1023.9
20190319010805 66 7 0.0 0.0 0.01 0.12 0.01 97 1024.0